Location: *
(37.5724°S, 58.0067°E)
Time: 11:26:41
(UTC+00:00)

ATLAS CENTAUR R/B - Pass Details

Date: 26 September 2020
Orbit: 479 x 667 km, 64.7° (Epoch: 12 October)

Event Time Altitude Azimuth Distance (km) Brightness Sun altitude
Exits shadow 23:43:17 19° 204° (SSW) 1,534 3.5 -25.1°
Drops below altitude 10° 23:45:34 10° 177° (S) 2,069 4.5 -24.7°
Sets 23:48:27 0° 161° (SSE) 3,011 5.7 -24.1°
